sat.trackr.live / text

‹ back to catalog

HULIANWANG DIGUI-103

NORAD 66419 · 2025-258H

PAYLOAD ACTIVE UNKNOWN

§ Identity

Operator
Country
PRC
Launch date
2025-11-10
Launch site
WSC
Launch vehicle
Mass (kg)
RCS (m²)

External: N2YO · Heavens-Above · Gunter

§ Orbital elements

Epoch: 2026-09-20T21:12:33.315552Z

Period
108.33 min
Inclination
50.0015°
Eccentricity
0.0000165
Mean motion
13.29324311 rev/d
Perigee alt
1,149.2 km
Apogee alt
1,149.4 km
Semi-major
7,527.4 km
B*
1.0016e-4
RAAN
312.0982°
Arg perigee
148.8676°
Mean anomaly
211.2206°
Rev number
4,246

§ Raw data

HULIANWANG DIGUI-1031 66419U 25258H   26263.88371893 -.00000078  00000+0  10016-3 0  99902 66419  50.0015 312.0982 0000165 148.8676 211.2206 13.29324311 42465

JSON: /api/v1/satellites/66419 · /tle

For live sub-satellite position, see the globe view (requires WebGL).

§ Visibility from observer

Set your observer location to see the next 7 days of passes ≥ 10°. The values pass through the URL so the page stays shareable.

No JS? Fill the form by hand. The geolocation button needs JavaScript.